Chesterfield, MO

8:58 AM CST on December 07, 2016 (GMT -0600)
Spirit Of Saint Louis

Weather History for KSUS - August, 2014

Change the Weather History Date:

Monday, August 25, 2014

  Actual Average Record
Temperature  
Mean Temperature 84 °F -  
Max Temperature 97 °F 85 °F 100 °F (2003)
Min Temperature 73 °F 63 °F 53 °F (2015)
Cooling Degree Days 20    
Growing Degree Days 34 (Base 50)    
Moisture  
Dew Point 74 °F    
Average Humidity 71    
Maximum Humidity 97    
Minimum Humidity 41    
Precipitation  
Precipitation 0.00 in - - ()
Sea Level Pressure  
Sea Level Pressure 29.96 in    
Wind  
Wind Speed 1 mph (South)    
Max Wind Speed 6 mph    
Max Gust Speed -    
Visibility 9 miles    
Events      
Averages and records for this station are not official NWS values.
T = Trace of Precipitation, MM = Missing Value Source: NWS Daily Summary

Daily Weather History Graph

Daily Weather History Graph

Search for Another Location

Airport or City:

Trip Planner

Search our weather history database for the weather conditions in past years. The results will help you decide how hot, cold, wet, or windy it might be!

Date:

Astronomy

Aug. 25, 2014 Rise Set
Actual Time 6:25 AM CDT 7:43 PM CDT
Civil Twilight 5:57 AM CDT 8:10 PM CDT
Nautical Twilight 5:24 AM CDT 8:43 PM CDT
Astronomical Twilight 4:50 AM CDT 9:18 PM CDT
Moon 6:30 AM CDT (8/25) 7:34 PM CDT (8/25)
Length of Visible Light 14h 12m
Length of Day
13h 17m
New Moon, 0% of the Moon is Illuminated
Aug 25
New Moon
Sep 2
First Quarter
Sep 8
Full
Sep 15
Last Quarter
Sep 24
New

Hourly Weather History & Observations

Time (CDT) Temp. Heat Index Dew Point Humidity Pressure Visibility Wind Dir Wind Speed Gust Speed Precip Events Conditions
12:54 AM 82.0 °F 89.4 °F 75.9 °F 82% 29.94 in 10.0 mi Calm Calm - N/A   Clear
1:54 AM 78.1 °F - 75.9 °F 93% 29.93 in 9.0 mi Calm Calm - N/A   Clear
2:54 AM 78.1 °F - 75.9 °F 93% 29.93 in 9.0 mi Calm Calm - N/A   Clear
3:54 AM 75.2 °F - 73.4 °F 94% 29.95 in 5.0 mi Calm Calm - N/A   Clear
4:54 AM 75.0 °F - 73.9 °F 96% 29.93 in 4.0 mi Calm Calm - N/A   Clear
5:32 AM 75.2 °F - 73.4 °F 94% 29.96 in 2.5 mi Calm Calm - N/A   Clear
5:42 AM 75.2 °F - 73.4 °F 94% 29.96 in 10.0 mi Calm Calm - N/A   Clear
5:54 AM 73.9 °F - 73.0 °F 97% 29.94 in 10.0 mi Calm Calm - N/A   Partly Cloudy
6:54 AM 75.9 °F - 75.0 °F 97% 29.96 in 10.0 mi Calm Calm - N/A   Clear
7:54 AM 80.1 °F 85.1 °F 75.0 °F 85% 29.97 in 7.0 mi Calm Calm - N/A   Clear
8:54 AM 84.0 °F 91.9 °F 75.0 °F 74% 29.98 in 10.0 mi South 4.6 mph - N/A   Clear
9:54 AM 87.1 °F 95.4 °F 73.9 °F 65% 29.99 in 10.0 mi South 3.5 mph - N/A   Clear
10:54 AM 90.0 °F 97.9 °F 73.0 °F 57% 29.99 in 10.0 mi SSW 3.5 mph - N/A   Clear
11:54 AM 90.0 °F 97.9 °F 73.0 °F 57% 29.99 in 10.0 mi Calm Calm - N/A   Clear
12:54 PM 93.9 °F 102.1 °F 72.0 °F 49% 29.98 in 10.0 mi Calm Calm - N/A   Clear
1:54 PM 93.9 °F 100.3 °F 70.0 °F 46% 29.97 in 10.0 mi Calm Calm - N/A   Partly Cloudy
2:54 PM 96.1 °F 101.6 °F 69.1 °F 41% 29.95 in 10.0 mi SW 3.5 mph - N/A   Partly Cloudy
3:54 PM 96.1 °F 102.9 °F 70.0 °F 43% 29.93 in 10.0 mi West 5.8 mph - N/A   Partly Cloudy
4:54 PM 96.1 °F 103.5 °F 71.1 °F 44% 29.92 in 10.0 mi West 3.5 mph - N/A   Partly Cloudy
5:54 PM 95.0 °F 100.7 °F 69.1 °F 43% 29.92 in 10.0 mi Calm Calm - N/A   Partly Cloudy
6:54 PM 90.0 °F 102.5 °F 77.0 °F 65% 29.93 in 10.0 mi Calm Calm - N/A   Clear
7:54 PM 89.1 °F 99.1 °F 75.0 °F 63% 29.94 in 10.0 mi South 4.6 mph - N/A   Scattered Clouds
8:54 PM 88.0 °F 97.5 °F 75.0 °F 65% 29.95 in 10.0 mi SSE 5.8 mph - N/A   Clear
9:54 PM 86.0 °F 95.1 °F 75.2 °F 70% 30.01 in 10.0 mi SE 3.5 mph - N/A   Clear
10:54 PM 84.9 °F 93.3 °F 75.0 °F 72% 30.00 in 10.0 mi SE 4.6 mph - N/A   Clear
11:54 PM 82.9 °F 90.2 °F 75.0 °F 77% 30.00 in 10.0 mi South 3.5 mph - N/A   Clear